This is the latest recevied weather packets stored in our database for station/object BV3BA-13. If no packets are shown the sender has not sent any weather packets the latest 10 day(s).
| Time | Temp. | Humidity | Pressure | Rain* | Wind** | Luminosity | Snow |
|---|---|---|---|---|---|---|---|
| 1778015223 | 20.56° C | 99% | 1009.8 hPa | 1.02 mm | - | - | - |
| 1778014625 | 20.56° C | 99% | 1009.5 hPa | 1.02 mm | - | - | - |
| 1778014025 | 20.56° C | 99% | 1009.5 hPa | 1.02 mm | - | - | - |
| 1778013424 | 20.56° C | 99% | 1009.5 hPa | 0.51 mm | - | - | - |
| 1778012825 | 20.56° C | 99% | 1009.3 hPa | 1.02 mm | - | - | - |
| 1778012224 | 20.56° C | 99% | 1009.3 hPa | 1.02 mm | - | - | - |
| 1778011623 | 20.56° C | 99% | 1009.3 hPa | 1.02 mm | - | - | - |
| 1778011024 | 20.56° C | 99% | 1009.2 hPa | 1.02 mm | - | - | - |
| 1778010427 | 20.56° C | 99% | 1009.2 hPa | 2.03 mm | - | - | - |
| 1778009824 | 20.56° C | 99% | 1009.4 hPa | 2.54 mm | - | - | - |
| 1778009224 | 20.56° C | 99% | 1009.5 hPa | 2.54 mm | - | - | - |
| 1778008624 | 20.56° C | 99% | 1009.3 hPa | 2.54 mm | - | - | - |
| 1778008024 | 20.56° C | 99% | 1009.1 hPa | 2.54 mm | - | - | - |
| 1778007426 | 20.56° C | 98% | 1009.3 hPa | 2.03 mm | - | - | - |
| 1778006823 | 20.56° C | 98% | 1009.6 hPa | 1.02 mm | - | - | - |
| 1778006224 | 20.56° C | 98% | 1009 hPa | 1.02 mm | - | - | - |
| 1778005623 | 20.56° C | 99% | 1009.2 hPa | 0.51 mm | - | - | - |
| 1778005024 | 20.56° C | 98% | 1009.1 hPa | 1.02 mm | - | - | - |
| 1778004425 | 20.56° C | 97% | 1009.1 hPa | 1.02 mm | - | - | - |
| 1778003824 | 20.56° C | 98% | 1009.3 hPa | 1.02 mm | - | - | - |
| 1778003223 | 20.56° C | 98% | 1009.3 hPa | 1.02 mm | - | - | - |
| 1778002624 | 20.56° C | 98% | 1009.6 hPa | 0.51 mm | - | - | - |
| 1778002023 | 20.56° C | 98% | 1009.6 hPa | 0.51 mm | - | - | - |
| 1778001423 | 20.56° C | 98% | 1009.6 hPa | 0 mm | - | - | - |
| 1778000823 | 20.56° C | 98% | 1009.8 hPa | 0 mm | - | - | - |
* Rain latest hour (hover to see other rain measurements)
** Current wind speed in m/s (hover to see current wind gust speed)